Regional Weather Roundup
Issued by NWS Charleston, SC

Current Version | Previous Version | Graphics & Text | Print | Product List | Glossary On
Versions: 1 2 3 4 5 6 7 8 9 10 11 12 13 14 15 16 17 18 19 20 21 22 23 24 25 26 27 28 29 30 31 32 33 34 35 36 37 38 39 40 41 42 43 44 45 46 47 48 49 50
000
ASUS42 KCHS 260513
RWRCHS

REGIONAL WEATHER ROUNDUP
NATIONAL WEATHER SERVICE CHARLESTON SC
100 AM EDT TUE JUL 26 2016

NOTE: "FAIR" INDICATES FEW OR NO CLOUDS BELOW 12,000 FEET WITH NO
SIGNIFICANT WEATHER AND/OR OBSTRUCTIONS TO VISIBILITY.

NOT ALL STATIONS ARE QUALITY CONTROLLED. USE DATA WITH CAUTION...
ESPECIALLY DEWPOINT OBSERVATIONS.

SCZ027-030-031-034>040-042>050-260600-
...SOUTHEAST SOUTH CAROLINA...

CITY           SKY/WX    TMP DP  RH WIND       PRES   REMARKS
N CHARLESTON   PTCLDY    78  72  81 SW5       30.07R
WATERFRONT PRK   N/A     83  76  79 SW7       30.04S HX  91
MOUNT PLEASANT FAIR      77  73  88 CALM      30.07S
JOHNS ISLAND   FAIR      82  75  78 CALM      30.07S
PINOPOLIS        N/A     79  73  83 CALM      30.00R
MONCKS CORNER  FAIR      72  70  94 CALM      30.07S
SUMMERVILLE    FAIR      75  75 100 CALM      30.08S
BEAUFORT MCAS  CLEAR     79  73  82 SW3       30.07S
BEAUFORT ARPT  FAIR      81  72  74 S6        30.06F
HILTON HEAD IS CLEAR     82  73  74 S7G13     30.08S
WALTERBORO     PTCLDY    79  79 100 CALM      30.08S
ALLENDALE      FAIR      79  73  83 VRB3      30.07R

...SOUTHERN MIDLANDS AND PEE DEE...

CITY           SKY/WX    TMP DP  RH WIND       PRES   REMARKS
GEORGETOWN     FAIR      73  72  94 CALM      30.08S
KINGSTREE      FAIR      75  70  83 CALM      30.06S
ORANGEBURG     CLEAR     76  72  87 S6        30.07S
BARNWELL       NOT AVBL
AIKEN          FAIR      79  68  69 S7        30.10S
MANNING        FAIR      79  54  41 SW9       30.07S
COLUMBIA       CLEAR     82  70  66 S8        30.05R
SUMTER         CLEAR     80  71  75 S10       30.04R
FLORENCE       CLEAR     80  72  76 SW8       30.06R
MYRTLE BEACH   CLEAR     81  68  65 SW8       30.07F
N MYRTLE BEACH CLEAR     81  74  79 SW12      30.05S

$$

GAZ063-065-086>088-099>101-113>116-118-119-134>141-150-260600-
...SOUTHEAST GEORGIA...

CITY           SKY/WX    TMP DP  RH WIND       PRES   REMARKS
SAVANNAH ARPT  CLEAR     78  72  81 S5        30.07S
HUNTER AAF     CLEAR     79  75  86 CALM      30.05S
FORT STEWART   CLEAR     75  72  90 CALM      30.05S
STATESBORO     PTCLDY    78  74  86 CALM      30.07S
SYLVANIA       NOT AVBL
CLAXTON        FAIR      78  74  87 CALM      30.06F

...CSRA...CENTRAL AND FAR SOUTHEAST GEORGIA...

CITY           SKY/WX    TMP DP  RH WIND       PRES   REMARKS
THOMSON        NOT AVBL
AUGUSTA-BUSH   CLEAR     80  70  71 S8        30.05R
AUGUSTA-DANIEL CLEAR     83  69  62 S6        30.07S
SWAINSBORO     FAIR      79  70  73 S5        30.07F
VIDALIA        CLEAR     79  72  78 S3        30.07S
EASTMAN        FAIR      78  61  55 CALM      30.08S
HAZLEHURST     FAIR      81  75  82 CALM      30.06S
ALMA           CLEAR     79  72  79 SW3       30.07R
WAYCROSS       CLEAR     81  76  86 CALM      30.07S
JESUP          FAIR      77  77 100 CALM      30.08S
BAXLEY         FAIR      79  77  94 S5        30.07S
BRUNSWICK      CLEAR     82  77  83 SW7       30.08S HX  91
SAINT SIMONS   CLEAR     82  75  79 SW8       30.07S

$$

SCZ027-028-034-036>038-045-046-048>050-GAZ119-141-260600-
...LAKE AND SUPPLEMENTAL COASTAL OBSERVATIONS...

STATION/POSITION TIME  TEMP    WIND        PRES    WAVE   SWELL
                       AIR SEA DIR/SP/G            HT/PER HT/PER/DIR
                 (UTC) (F)     (DEG/KT/KT) (MB)    (FT/S) (FT/S/D)
WINYAH BAY       0345   82     230/  5     1017.0
LAKE MURRAY      NOT AVBL
ACE BASIN NERRS  NOT AVBL
FORT PULASKI     0400   84 88  190/  6/ 10 1018.5
SAPELO ISLAND    0400   83     180/  8     1018.0S

$$

ANZ835-935-AMZ111-154-330-350-352-354-370-450-454-472-260600-
...C-MAN AND BUOY OBSERVATIONS...

STATION/POSITION TIME  TEMP    WIND        PRES    WAVE   SWELL
                       AIR SEA DIR/SP/G            HT/PER HT/PER/DIR
                 (UTC) (F)     (DEG/KT/KT) (MB)    (FT/S) (FT/S/D)
BUOY 41004       0450   85 86  210/ 14/ 16 1017.6F   2/ 8   2/130/ 8
BUOY 41008       0450   85 86  180/ 12/ 16 1017.7F   3/ 4   2/ 80/ 8
FOLLY BEACH CMAN 0500   84     210/ 15/ 16 1018.2F
CAPERS NEARSHORE 0408   84 84  220/ 14/ 19 1017.9F
FRIPP NEARSHORE  0408   85 87  200/ 14/ 17 1017.8R


STATION/POSITION TIME  TEMP    WIND        PRES    WAVE   SWELL
                       AIR SEA DIR/SP/G            HT/PER HT/PER/DIR
                 (UTC) (F)     (DEG/KT/KT) (MB)    (FT/S) (FT/S/D)
5E ST. MARYS GA  0401      86                N/A     3/ 4
FRYING PAN BUOY  0400   85 86  220/ 14/ 19 1017.8R
BUOY 41025       0450   84 85  230/ 17/ 21 1016.7F   5/ 5
CAPE LOOKOUT NC  0400   83     230/ 11/ 15 1017.3R
BUOY 41002       0450   83 84  180/  6/  8 1019.3F   2/ 8   2/120/ 8
BUOY 41010       0420   85 87  180/ 10/ 14 1018.6F
ST AUGUSTINE FL  0500   80 85  230/  6/  7 1019.4R


$$




USA.gov is the U.S. government's official web portal to all federal, state and local government web resources and services.